Weather in Zug

Switzerland     47°09′58″N   8°30′55″E
temp.,
°C
wind,
m/s
gust,
m/s
humid.,
%
clouds,
%
prec.,
mm/h
press.,
hPa
HPBL,
m
12 may, wed
wed1223:00+8sw4996100 4.6 1014632
02:00+7sw3896100 8.3 1016534
05:00+7sw119399 0.2 101541
08:00+8wsw129037 0.4 1015177
11:00+12nnw116131 0.3 10131257
14:00+14ne1152100 0.6 10111529
17:00+13n225584 0.3 10101373
20:00+11ene127965 0.4 101171
13 may, thu
thu1323:00+6se1190100 0.0 101211
02:00+6sse1193100 0.0 101111
05:00+5ssw119495 0.0 101114
08:00+7s119089 0.2 101177
11:00+9nw2488100 0.4 1011404
14:00+8wnw3693100 1.6 1011679
17:00+9sw357781 0.4 1010978
20:00+8s1185100 0.7 101040
14 may, fri
fri1423:00+6s2291100 0.1 101122
02:00+5s1190100 0.1 101113
05:00+3s21945 0.0 101114
08:00+6sw11785 0.0 1011153
11:00+13w23535 0.0 10101084
14:00+15wnw334569 0.1 10082171
17:00+11wnw4683100 1.1 1009555
20:00+9w2490100 3.4 1011126
15 may, sat
sat1523:00+7s239791 1.5 101362
02:00+5ssw2295100 1.5 101424
05:00+6sw1395100 0.0 1014101
08:00+7sw119396 0.1 1014162
11:00+11w467878 0.8 10131129
14:00+15w355463 1.3 10111785
17:00+13wnw2473100 1.1 1011787
20:00+9sw3895100 3.4 1012545
16 may, sun
sun1623:00+8wsw3997100 2.8 1014607
02:00+8se1298100 5.3 101373
05:00+8sse1298100 2.1 101354
08:00+8sw2797100 4.3 1013366
11:00+11wsw499199 1.4 10131036
14:00+13sw3987100 2.3 10121319
17:00+12sw2591100 1.2 1011307
20:00+11se1197100 3.4 101022